EW9318 Weather Reports


Display with metric or nautical units.
time (UTC)temp
F
wind
direction
speed
MPH
gust
MPH
rain 1hr
in
rain 24hr
in
rain mn
in
humidity
%
barometer
mb
20260507152016 46 307 9.0 18.0 0.00 0.00 0.00 48 1013.0
20260507151516 46 300 10.0 18.0 0.00 0.00 0.00 48 1013.0
20260507151016 46 264 9.0 17.0 0.00 0.00 0.00 50 1012.9
20260507150516 46 284 11.0 21.0 0.00 0.00 0.00 49 1012.9
20260507150016 46 303 10.0 21.0 0.00 0.00 0.00 49 1012.8
20260507145516 46 281 10.0 18.0 0.00 0.00 0.00 48 1012.8
20260507145016 46 259 12.0 16.0 0.00 0.00 0.00 52 1012.9
20260507144516 46 280 10.0 16.0 0.00 0.00 0.00 50 1012.9
20260507144036 45 286 10.0 17.0 0.00 0.00 0.00 50 1012.9
20260507143516 45 272 12.0 17.0 0.00 0.00 0.00 51 1013.0
20260507143037 45 286 10.0 18.0 0.00 0.00 0.00 50 1013.0
20260507142516 45 298 11.0 18.0 0.00 0.00 0.00 49 1013.0
20260507142016 45 282 9.0 15.0 0.00 0.00 0.00 51 1013.1
20260507141516 45 271 10.0 22.0 0.00 0.00 0.00 52 1013.1
20260507141016 45 285 10.0 22.0 0.00 0.00 0.00 51 1013.0
20260507140537 45 310 10.0 17.0 0.00 0.00 0.00 50 1013.0
20260507140017 45 304 12.0 17.0 0.00 0.00 0.00 51 1013.1
20260507135516 45 310 11.0 19.0 0.00 0.00 0.00 52 1013.1
20260507135016 45 266 11.0 19.0 0.00 0.00 0.00 54 1013.1
20260507134556 45 295 10.0 19.0 0.00 0.00 0.00 54 1013.0
20260507134017 45 285 6.0 17.0 0.00 0.00 0.00 55 1013.0
20260507133516 44 274 9.0 17.0 0.00 0.00 0.00 56 1013.0
20260507133016 44 282 7.0 13.0 0.00 0.00 0.00 60 1012.8
20260507132517 44 258 8.0 13.0 0.00 0.00 0.00 61 1012.7
20260507132036 44 273 8.0 13.0 0.00 0.00 0.00 62 1012.8
20260507131516 43 288 7.0 13.0 0.00 0.00 0.00 62 1012.9
20260507131016 43 275 8.0 13.0 0.00 0.00 0.00 63 1012.8
20260507130516 43 268 8.0 14.0 0.00 0.00 0.00 63 1012.8
20260507130017 43 264 9.0 14.0 0.00 0.00 0.00 64 1012.7
20260507125516 42 269 9.0 12.0 0.00 0.00 0.00 64 1012.7
20260507125038 42 290 7.0 12.0 0.00 0.00 0.00 64 1012.6
20260507124516 42 272 7.0 12.0 0.00 0.00 0.00 65 1012.6
20260507124016 42 280 7.0 11.0 0.00 0.00 0.00 66 1012.6
20260507123517 41 282 5.0 11.0 0.00 0.00 0.00 66 1012.6
20260507123016 41 269 6.0 11.0 0.00 0.00 0.00 68 1012.5
20260507122516 41 287 6.0 11.0 0.00 0.00 0.00 68 1012.6
20260507122016 41 288 6.0 11.0 0.00 0.00 0.00 69 1012.5
20260507121536 41 287 4.0 9.0 0.00 0.00 0.00 70 1012.6
20260507121036 41 281 5.0 12.0 0.00 0.00 0.00 71 1012.6
20260507120517 40 287 6.0 12.0 0.00 0.00 0.00 71 1012.6
20260507120016 40 283 6.0 11.0 0.00 0.00 0.00 72 1012.6
20260507115515 40 287 6.0 11.0 0.00 0.00 0.00 73 1012.6
20260507115037 40 277 5.0 9.0 0.00 0.00 0.00 74 1012.6
20260507114515 39 279 4.0 9.0 0.00 0.00 0.00 76 1012.5
20260507114016 38 285 5.0 8.0 0.00 0.00 0.00 77 1012.4
20260507113516 38 272 5.0 8.0 0.00 0.00 0.00 79 1012.3
20260507113016 37 268 3.0 7.0 0.00 0.00 0.00 81 1012.3
20260507112516 37 259 3.0 4.0 0.00 0.00 0.00 81 1012.3
20260507112015 36 257 3.0 7.0 0.00 0.00 0.00 82 1012.2
20260507111515 36 249 4.0 7.0 0.00 0.00 0.00 82 1012.1
20260507111016 36 252 3.0 6.0 0.00 0.00 0.00 82 1012.1
20260507110515 36 252 3.0 6.0 0.00 0.00 0.00 82 1012.1
20260507110015 35 247 3.0 5.0 0.00 0.00 0.00 82 1012.0
20260507105536 35 243 3.0 5.0 0.00 0.00 0.00 81 1011.9
20260507105016 36 236 3.0 5.0 0.00 0.00 0.00 81 1011.9
20260507104535 36 234 3.0 5.0 0.00 0.00 0.00 81 1012.0
20260507104016 36 226 3.0 5.0 0.00 0.00 0.00 81 1011.8
20260507103515 35 225 3.0 5.0 0.00 0.00 0.00 81 1011.9
20260507103016 35 232 2.0 5.0 0.00 0.00 0.00 80 1011.8
20260507102517 36 232 2.0 4.0 0.00 0.00 0.00 80 1011.7
20260507102015 36 241 2.0 4.0 0.00 0.00 0.00 80 1011.8
20260507101516 36 239 2.0 4.0 0.00 0.00 0.00 79 1011.8
20260507101016 36 235 2.0 4.0 0.00 0.00 0.00 79 1011.8
20260507100515 36 234 2.0 4.0 0.00 0.00 0.00 78 1011.8
20260507100016 37 232 2.0 4.0 0.00 0.00 0.00 77 1011.8
20260507095515 37 252 2.0 4.0 0.00 0.00 0.00 77 1011.7
20260507095015 37 257 2.0 3.0 0.00 0.00 0.00 77 1011.7
20260507094516 37 253 2.0 3.0 0.00 0.00 0.00 76 1011.7
20260507094015 37 254 2.0 3.0 0.00 0.00 0.00 75 1011.7
20260507093515 38 233 1.0 4.0 0.00 0.00 0.00 75 1011.7
20260507093015 38 230 1.0 4.0 0.00 0.00 0.00 74 1011.8
20260507092557 38 219 1.0 2.0 0.00 0.00 0.00 74 1011.8
20260507092016 39 232 1.0 2.0 0.00 0.00 0.00 74 1011.8
20260507091516 39 233 0.0 3.0 0.00 0.00 0.00 73 1011.8
20260507091015 39 241 1.0 3.0 0.00 0.00 0.00 72 1011.8
20260507090515 39 252 1.0 3.0 0.00 0.00 0.00 72 1011.9
20260507090057 39 271 0.0 2.0 0.00 0.00 0.00 72 1011.9
20260507085515 40 269 1.0 3.0 0.00 0.00 0.00 71 1012.0
20260507085015 40 270 2.0 4.0 0.00 0.00 0.00 71 1012.0
20260507084515 40 279 2.0 6.0 0.00 0.00 0.00 70 1012.0
20260507084015 40 281 3.0 6.0 0.00 0.00 0.00 70 1012.0
20260507083515 40 283 2.0 7.0 0.00 0.00 0.00 69 1011.9
20260507083016 40 282 3.0 7.0 0.00 0.00 0.00 69 1012.0
20260507082516 40 289 3.0 7.0 0.00 0.00 0.00 68 1011.9
20260507082016 40 283 3.0 7.0 0.00 0.00 0.00 68 1012.0
20260507081535 40 282 4.0 7.0 0.00 0.00 0.00 68 1012.0
20260507081015 41 291 3.0 8.0 0.00 0.00 0.00 67 1012.0
20260507080515 41 287 3.0 8.0 0.00 0.00 0.00 67 1012.0
20260507080015 41 288 3.0 7.0 0.00 0.00 0.00 67 1012.0
20260507075515 41 298 3.0 7.0 0.00 0.00 0.00 67 1012.0
20260507075015 41 302 4.0 8.0 0.00 0.00 0.00 67 1011.9
20260507074515 41 300 3.0 8.0 0.00 0.00 0.00 68 1011.9
20260507074015 41 303 3.0 7.0 0.00 0.00 0.00 68 1012.0
20260507073535 41 299 3.0 7.0 0.00 0.00 0.00 68 1012.0
20260507073015 41 294 3.0 6.0 0.00 0.00 0.00 69 1012.0
20260507072535 41 291 3.0 7.0 0.00 0.00 0.00 69 1012.1
20260507072015 41 282 3.0 7.0 0.00 0.00 0.00 69 1012.1
20260507071517 41 292 3.0 7.0 0.00 0.00 0.00 70 1012.1
20260507071015 42 302 4.0 7.0 0.00 0.00 0.00 70 1012.0
20260507070515 42 298 3.0 7.0 0.00 0.00 0.00 70 1012.0
20260507070015 42 293 4.0 8.0 0.00 0.00 0.00 69 1012.0
20260507065515 42 300 5.0 11.0 0.00 0.00 0.00 69 1012.0
20260507065016 42 304 5.0 11.0 0.00 0.00 0.00 69 1012.0
20260507064515 42 293 5.0 9.0 0.00 0.00 0.00 69 1012.0
20260507064015 43 290 5.0 9.0 0.00 0.00 0.00 68 1012.1
20260507063515 43 295 4.0 8.0 0.00 0.00 0.00 68 1012.1
20260507063035 43 296 5.0 9.0 0.00 0.00 0.00 68 1012.1
20260507062515 43 302 6.0 9.0 0.00 0.00 0.00 68 1012.2
20260507062015 44 298 5.0 10.0 0.00 0.00 0.00 67 1012.1
20260507061516 44 306 6.0 10.0 0.00 0.00 0.00 67 1012.1
20260507061016 44 292 5.0 9.0 0.00 0.00 0.00 67 1012.0
20260507060536 44 279 5.0 9.0 0.00 0.00 0.00 66 1012.0
20260507060015 44 273 4.0 9.0 0.00 0.00 0.00 66 1012.0
20260507055515 44 267 3.0 7.0 0.00 0.00 0.00 65 1012.0
20260507055035 44 266 4.0 7.0 0.00 0.00 0.00 64 1011.9
20260507054515 44 271 4.0 6.0 0.00 0.00 0.00 63 1012.0
20260507054015 44 273 4.0 6.0 0.00 0.00 0.00 62 1012.0
20260507053515 44 283 3.0 7.0 0.00 0.00 0.00 62 1012.0
20260507053036 44 277 3.0 7.0 0.00 0.00 0.00 62 1012.0
20260507052557 44 274 3.0 7.0 0.00 0.00 0.00 61 1012.1
20260507052057 44 283 3.0 6.0 0.00 0.00 0.00 62 1012.1
20260507051517 44 279 2.0 4.0 0.00 0.00 0.00 62 1012.0
20260507051017 44 264 2.0 6.0 0.00 0.00 0.00 64 1012.1
20260507050517 44 265 3.0 6.0 0.00 0.00 0.00 63 1012.0
20260507050017 44 272 2.0 4.0 0.00 0.00 0.00 64 1012.0
20260507045518 44 267 1.0 3.0 0.00 0.00 0.00 65 1011.9
20260507045017 44 277 1.0 3.0 0.00 0.00 0.00 64 1012.0
20260507044517 44 277 1.0 2.0 0.00 0.00 0.00 65 1011.9
20260507044017 44 277 1.0 2.0 0.00 0.00 0.00 65 1012.0
20260507043518 44 281 1.0 2.0 0.00 0.00 0.00 65 1012.0
20260507043057 44 284 1.0 2.0 0.00 0.00 0.00 64 1012.0
20260507042517 45 284 1.0 2.0 0.00 0.00 0.00 64 1012.0
20260507042017 45 0.0 0.0 0.00 0.00 0.00 63 1012.0
20260507041517 45 0.0 0.0 0.00 0.00 0.00 61 1012.0
20260507041017 45 0.0 0.0 0.00 0.00 0.00 61 1012.0
20260507040517 45 0.0 0.0 0.00 0.00 0.00 60 1012.1
20260507040018 45 0.0 0.0 0.00 0.00 0.00 58 1012.0
20260507035515 45 0.0 0.0 0.00 0.00 0.00 57 1012.1
20260507035036 45 0.0 0.0 0.00 0.00 0.00 57 1012.1
20260507034535 45 0.0 0.0 0.00 0.00 0.00 56 1012.1
20260507034015 46 0.0 0.0 0.00 0.00 0.00 56 1012.1
20260507033515 46 0.0 2.0 0.00 0.00 0.00 56 1012.1
20260507033015 46 277 0.0 2.0 0.00 0.00 0.00 57 1012.1
20260507032515 46 277 0.0 4.0 0.00 0.00 0.00 57 1012.2
20260507032035 46 276 1.0 4.0 0.00 0.00 0.00 53 1012.1
20260507031515 46 287 1.0 3.0 0.00 0.00 0.00 53 1012.1
20260507031015 46 280 1.0 2.0 0.00 0.00 0.00 54 1012.1
20260507030515 47 325 1.0 3.0 0.00 0.00 0.00 52 1012.1
20260507030015 47 335 2.0 3.0 0.00 0.00 0.00 54 1012.2
20260507025515 47 287 1.0 3.0 0.00 0.00 0.00 51 1012.2
20260507025035 47 284 1.0 2.0 0.00 0.00 0.00 52 1012.3
20260507024515 47 304 1.0 4.0 0.00 0.00 0.00 51 1012.2
20260507024015 47 311 2.0 4.0 0.00 0.00 0.00 49 1012.2
20260507023515 47 319 2.0 4.0 0.00 0.00 0.00 49 1012.2
20260507023015 47 307 2.0 4.0 0.00 0.00 0.00 49 1012.2
20260507022515 47 317 1.0 3.0 0.00 0.00 0.00 48 1012.1
20260507022016 48 316 1.0 3.0 0.00 0.00 0.00 48 1012.0
20260507021515 48 324 2.0 4.0 0.00 0.00 0.00 48 1012.0
20260507021016 48 329 2.0 4.0 0.00 0.00 0.00 48 1012.0
20260507020515 48 320 2.0 4.0 0.00 0.00 0.00 48 1012.0
20260507020016 48 309 1.0 4.0 0.00 0.00 0.00 47 1011.8
20260507015515 48 307 2.0 4.0 0.00 0.00 0.00 46 1011.8
20260507015016 48 311 2.0 4.0 0.00 0.00 0.00 46 1011.7
20260507014515 48 324 2.0 4.0 0.00 0.00 0.00 46 1011.6
20260507014015 48 323 2.0 4.0 0.00 0.00 0.00 46 1011.7
20260507013515 49 319 2.0 3.0 0.00 0.00 0.00 46 1011.7
20260507013056 49 332 2.0 4.0 0.00 0.00 0.00 46 1011.6
20260507012516 49 309 2.0 4.0 0.00 0.00 0.00 46 1011.6
20260507012036 49 290 1.0 3.0 0.00 0.00 0.00 45 1011.6
20260507011515 49 295 2.0 3.0 0.00 0.00 0.00 44 1011.6
20260507011017 49 298 1.0 4.0 0.00 0.00 0.00 44 1011.6
20260507010516 49 296 2.0 4.0 0.00 0.00 0.00 44 1011.5
20260507010017 49 280 2.0 4.0 0.00 0.00 0.00 44 1011.5
20260507005517 49 273 2.0 4.0 0.00 0.00 0.00 44 1011.6
20260507005017 49 273 2.0 7.0 0.00 0.00 0.00 43 1011.4
20260507004518 50 285 3.0 7.0 0.00 0.00 0.00 42 1011.5
20260507004018 50 289 3.0 6.0 0.00 0.00 0.00 42 1011.4
20260507003537 50 290 2.0 4.0 0.00 0.00 0.00 42 1011.4
20260507003017 50 279 2.0 6.0 0.00 0.00 0.00 42 1011.4
20260507002517 50 273 3.0 8.0 0.00 0.00 0.00 42 1011.2
20260507002037 50 275 4.0 10.0 0.00 0.00 0.00 42 1011.2
20260507001517 50 273 4.0 10.0 0.00 0.00 0.00 42 1011.1
20260507001017 50 275 3.0 8.0 0.00 0.00 0.00 42 1011.1
20260507000518 50 284 4.0 10.0 0.00 0.00 0.00 41 1011.1
20260507000018 50 293 6.0 10.0 0.00 0.00 0.00 41 1011.0
20260506235517 50 303 4.0 8.0 0.00 0.00 0.00 41 1011.0
20260506235017 50 308 3.0 6.0 0.00 0.00 0.00 41 1011.1
20260506234518 51 288 3.0 10.0 0.00 0.00 0.00 40 1011.0
20260506234018 51 275 6.0 10.0 0.00 0.00 0.00 39 1011.0
20260506233537 51 287 4.0 10.0 0.00 0.00 0.00 40 1011.0
20260506233016 51 288 5.0 12.0 0.00 0.00 0.00 40 1010.9
20260506232517 51 318 6.0 12.0 0.00 0.00 0.00 40 1011.0
20260506232016 51 300 6.0 12.0 0.00 0.00 0.00 39 1011.0
20260506231518 51 288 7.0 11.0 0.00 0.00 0.00 39 1011.0
20260506231017 51 289 6.0 14.0 0.00 0.00 0.00 39 1011.0
20260506230517 51 307 8.0 14.0 0.00 0.00 0.00 39 1011.0
20260506230017 52 300 6.0 12.0 0.00 0.00 0.00 38 1011.0
20260506225517 52 297 8.0 12.0 0.00 0.00 0.00 37 1011.0
20260506225037 53 264 6.0 12.0 0.00 0.00 0.00 37 1011.1
20260506224517 53 251 7.0 17.0 0.00 0.00 0.00 38 1011.1
20260506224018 53 275 9.0 17.0 0.00 0.00 0.00 37 1011.2
20260506223517 53 257 7.0 15.0 0.00 0.00 0.00 38 1011.1
20260506223017 52 260 9.0 17.0 0.00 0.00 0.00 39 1011.1
20260506222518 53 249 10.0 17.0 0.00 0.00 0.00 38 1011.1
20260506222016 53 287 11.0 20.0 0.00 0.00 0.00 37 1011.2
20260506221517 53 319 11.0 20.0 0.00 0.00 0.00 37 1011.1
20260506221016 52 305 8.0 15.0 0.00 0.00 0.00 38 1011.1
20260506220516 52 305 11.0 15.0 0.00 0.00 0.00 37 1011.1
20260506220016 52 293 8.0 14.0 0.00 0.00 0.00 37 1011.1
20260506215518 52 284 8.0 16.0 0.00 0.00 0.00 38 1011.1
20260506215017 52 304 10.0 16.0 0.00 0.00 0.00 37 1011.0
20260506214537 52 305 8.0 13.0 0.00 0.00 0.00 38 1010.9
20260506214016 52 301 8.0 16.0 0.00 0.00 0.00 37 1011.0
20260506213516 52 310 9.0 16.0 0.00 0.00 0.00 37 1011.1
20260506213017 52 308 8.0 14.0 0.00 0.00 0.00 38 1011.1
20260506212537 53 309 10.0 16.0 0.00 0.00 0.00 37 1011.0
20260506212016 53 317 10.0 17.0 0.00 0.00 0.00 36 1011.1
20260506211516 53 295 10.0 17.0 0.00 0.00 0.00 35 1011.0
20260506211017 53 290 9.0 16.0 0.00 0.00 0.00 37 1011.1
20260506210517 53 263 10.0 17.0 0.00 0.00 0.00 41 1011.1
20260506210016 52 293 10.0 17.0 0.00 0.00 0.00 36 1011.2
20260506205516 52 298 9.0 19.0 0.00 0.00 0.00 36 1011.1
20260506205016 52 288 11.0 19.0 0.00 0.00 0.00 37 1011.3
20260506204517 52 293 9.0 16.0 0.00 0.00 0.00 37 1011.3
20260506204036 52 289 9.0 19.0 0.00 0.00 0.00 37 1011.3
20260506203516 52 305 12.0 19.0 0.00 0.00 0.00 36 1011.3
20260506203016 52 276 9.0 19.0 0.00 0.00 0.00 39 1011.3
20260506202516 52 285 8.0 19.0 0.00 0.00 0.00 36 1011.3
20260506202016 52 267 12.0 31.0 0.00 0.00 0.00 36 1011.5
20260506201517 53 261 11.0 31.0 0.00 0.00 0.00 36 1011.6
20260506201016 53 268 6.0 15.0 0.00 0.00 0.00 40 1011.5
20260506200556 53 258 10.0 15.0 0.00 0.00 0.00 38 1011.7
20260506200016 53 260 12.0 15.0 0.00 0.00 0.00 37 1011.6
20260506195516 52 294 11.0 16.0 0.00 0.00 0.00 39 1011.7
20260506195016 52 314 9.0 19.0 0.00 0.00 0.00 35 1011.7
20260506194536 52 306 10.0 19.0 0.00 0.00 0.00 37 1011.8
20260506194016 52 308 9.0 18.0 0.00 0.00 0.00 36 1011.7
20260506193517 51 300 11.0 18.0 0.00 0.00 0.00 36 1011.8
20260506193016 51 296 11.0 17.0 0.00 0.00 0.00 36 1011.7
20260506192516 51 286 10.0 16.0 0.00 0.00 0.00 36 1011.7
20260506192037 51 286 7.0 16.0 0.00 0.00 0.00 35 1011.7
20260506191516 52 305 11.0 16.0 0.00 0.00 0.00 35 1011.8
20260506191017 52 274 10.0 16.0 0.00 0.00 0.00 35 1011.6
20260506190516 52 282 9.0 18.0 0.00 0.00 0.00 37 1011.6
20260506190016 51 290 10.0 18.0 0.00 0.00 0.00 36 1011.7
20260506185516 51 283 10.0 18.0 0.00 0.00 0.00 38 1011.8
20260506185016 51 300 11.0 18.0 0.00 0.00 0.00 36 1011.9
20260506184517 52 279 11.0 17.0 0.00 0.00 0.00 37 1011.9
20260506184016 51 262 10.0 17.0 0.00 0.00 0.00 36 1011.8
20260506183516 51 281 10.0 16.0 0.00 0.00 0.00 36 1011.9
20260506183016 52 287 9.0 17.0 0.00 0.00 0.00 37 1011.7
20260506182516 52 256 10.0 20.0 0.00 0.00 0.00 39 1011.7
20260506182016 51 295 12.0 20.0 0.00 0.00 0.00 40 1011.8
20260506181516 51 310 9.0 18.0 0.00 0.00 0.00 38 1011.6
20260506181016 51 313 12.0 18.0 0.00 0.00 0.00 36 1011.9
20260506180517 51 279 11.0 17.0 0.00 0.00 0.00 39 1011.7
20260506180036 51 279 9.0 17.0 0.00 0.00 0.00 39 1011.7
20260506175516 51 307 8.0 15.0 0.00 0.00 0.00 37 1011.8
20260506175016 51 311 6.0 15.0 0.00 0.00 0.00 38 1011.6
20260506174517 51 312 9.0 15.0 0.00 0.00 0.00 38 1011.7
20260506174016 51 269 6.0 16.0 0.00 0.00 0.00 37 1011.8
20260506173516 51 291 9.0 16.0 0.00 0.00 0.00 37 1011.7
20260506173017 51 275 8.0 19.0 0.00 0.00 0.00 38 1011.8
20260506172536 51 272 10.0 19.0 0.00 0.00 0.00 38 1011.9
20260506172016 51 284 10.0 16.0 0.00 0.00 0.00 37 1011.8
20260506171516 52 287 10.0 16.0 0.00 0.00 0.00 37 1011.8
20260506171017 51 321 9.0 15.0 0.00 0.00 0.00 39 1011.9
20260506170516 51 306 8.0 15.0 0.00 0.00 0.00 38 1011.9
20260506170037 50 295 6.0 11.0 0.00 0.00 0.00 38 1011.9
20260506165516 50 272 8.0 17.0 0.00 0.00 0.00 39 1012.0
20260506165016 50 301 7.0 17.0 0.00 0.00 0.00 38 1011.9
20260506164516 50 314 6.0 13.0 0.00 0.00 0.00 43 1011.9
20260506164016 50 321 9.0 14.0 0.00 0.00 0.00 40 1011.9
20260506163516 50 344 7.0 15.0 0.00 0.00 0.00 40 1011.9
20260506163016 50 344 10.0 17.0 0.00 0.00 0.00 42 1011.9
20260506162516 50 323 11.0 18.0 0.00 0.00 0.00 38 1011.8
20260506162016 51 331 6.0 18.0 0.00 0.00 0.00 39 1011.8
20260506161516 51 9 7.0 16.0 0.00 0.00 0.00 42 1011.8
20260506161037 50 310 9.0 16.0 0.00 0.00 0.00 40 1011.9
20260506160516 50 280 9.0 15.0 0.00 0.00 0.00 39 1011.9
20260506160016 50 291 9.0 15.0 0.00 0.00 0.00 39 1011.9
20260506155536 50 318 5.0 13.0 0.00 0.00 0.00 39 1012.0
20260506155016 50 324 7.0 13.0 0.00 0.00 0.00 39 1012.0
20260506154536 50 292 6.0 12.0 0.00 0.00 0.00 40 1011.9
20260506154016 50 314 8.0 16.0 0.00 0.00 0.00 43 1011.9
20260506153516 50 308 11.0 16.0 0.00 0.00 0.00 38 1012.0
20260506153016 50 278 7.0 12.0 0.00 0.00 0.00 37 1011.8
20260506152536 51 1 6.0 11.0 0.00 0.00 0.00 42 1011.9